RH
26 22 23 24 20 11 10 28 42 15 19 73 96 94 77 57 61 56 58 62 81 89 89 95 94 97 85 62 83 95 90 73 73 57 50 55 42 39 38 46 46 60 49 40
28 24 22 22 21 16 15 72 38 18 24 70 93 62 63 64 67 62 56 64 69 69 76 87 84 77 60 62 89 98 90 82 77 63 51 49 50 46 41 50 51 50 53 35
31 28 23 22 20 22 16 80 71 60 68 78 75 65 66 52 60 57 53 59 58 65 66 72 76 69 62 63 77 70 84 91 69 55 53 61 55 52 42 40 48 53 46 32
33 31 27 23 22 20 19 91 86 81 72 77 94 84 98 88 82 70 58 60 65 80 80 70 78 72 72 68 76 78 88 94 95 91 91 75 60 56 50 46 42 40 34 47
30 34 31 26 24 23 43 80 80 93 100 96 78 71 92 96 88 86 64 62 70 81 88 85 95 82 88 96 84 92 86 96 90 87 87 89 75 67 58 50 45 42 46 50
24 34 35 32 27 25 53 86 76 79 86 85 71 79 80 79 80 50 67 77 69 74 58 51 56 56 64 73 90 95 97 96 95 93 88 87 78 75 70 60 55 52 55 50
24 26 38 37 33 31 38 68 62 81 70 82 69 90 88 85 77 63 71 53 59 45 54 61 62 64 66 73 89 90 94 97 97 96 96 96 63 70 65 67 66 61 63 68
22 25 29 40 38 36 35 53 58 85 73 80 86 99 96 82 66 85 80 64 56 64 73 90 83 85 75 78 76 98 94 98 100 96 98 79 84 81 79 76 62 67 64 71
28 23 27 31 41 40 40 44 53 58 82 74 68 89 94 68 72 73 67 64 60 70 87 93 84 68 77 71 78 82 85 87 93 98 99 94 69 81 76 74 78 68 62 67
37 30 27 32 40 44 45 48 47 48 82 70 80 78 69 82 86 75 82 80 65 71 96 99 98 88 91 81 85 95 92 96 100 100 100 85 81 86 81 77 68 64 62 66
52 38 32 39 58 61 54 52 55 48 85 73 80 73 83 94 84 68 74 74 78 92 97 95 93 99 96 98 86 85 80 93 100 99 100 89 86 91 83 80 60 58 60 59
88 54 43 41 74 67 67 56 62 56 61 79 73 69 62 51 52 74 89 76 76 83 88 98 97 96 100 100 69 91 83 78 84 87 85 78 83 83 90 78 62 55 57 53
92 78 66 67 93 95 74 62 64 60 89 84 91 89 85 86 75 47 75 87 83 95 90 92 96 92 89 91 92 94 87 99 86 68 71 77 72 89 76 61 51 51 61 66
89 91 94 95 95 100 90 78 63 54 69 83 82 76 78 78 85 75 48 58 85 89 95 97 97 92 89 92 89 90 87 93 88 86 74 80 76 79 78 60 52 54 59 63
96 91 85 92 96 98 99 94 78 62 62 85 84 78 77 57 67 62 56 69 90 97 100 100 96 96 97 99 98 99 93 77 71 57 54 70 62 83 84 71 62 60 60 60
100 95 85 86 98 100 97 93 85 78 50 86 86 79 70 50 52 62 72 78 95 96 94 96 96 90 92 98 98 75 88 91 82 62 83 84 85 93 92 77 71 71 66 57
100 100 95 87 99 99 80 80 70 43 46 85 88 91 70 49 60 71 77 82 93 94 99 100 97 97 95 100 98 68 85 85 90 94 88 73 93 70 91 79 70 64 62 61
100 100 98 89 100 99 95 89 42 52 57 77 91 89 72 58 83 86 83 92 98 98 95 96 95 97 98 100 77 83 92 95 95 90 90 87 92 96 94 87 87 87 84 91
100 100 98 100 99 100 98 100 89 71 70 97 96 91 89 71 91 90 96 97 100 93 98 98 88 97 99 71 73 88 83 81 80 95 94 98 95 93 95 94 96 86 83 92
100 100 100 99 99 99 96 96 96 97 97 97 97 93 91 74 95 97 94 99 99 100 90 93 97 91 67 73 87 80 80 82 88 86 91 92 87 87 90 88 85 77 81 79
100 99 98 99 98 80 96 97 96 96 99 94 93 83 86 65 80 79 79 93 96 100 90 95 96 93 85 96 91 91 90 89 86 84 86 85 80 82 83 88 84 81 79 80
99 96 95 98 97 97 95 95 95 96 93 95 96 94 76 81 87 84 97 92 96 100 95 97 98 84 95 95 92 90 92 92 91 88 86 81 79 73 79 80 82 80 74 72
99 97 96 96 96 96 97 97 97 99 92 97 95 90 84 96 91 96 96 100 95 91 97 93 84 94 96 97 95 90 91 91 91 90 88 84 75 70 74 79 72 71 75 70
98 96 95 93 97 92 90 84 86 86 87 82 76 90 86 94 91 94 95 95 93 98 100 89 89 94 98 96 95 92 90 89 90 90 86 84 81 78 70 69 69 70 79 71
98 98 95 95 87 97 96 97 91 95 68 75 88 92 90 95 94 95 94 98 99 93 88 90 97 97 97 96 96 96 96 92 88 86 87 84 78 75 72 66 69 72 71 70
99 98 97 97 88 100 99 96 98 93 70 94 91 97 96 96 95 95 93 92 92 85 94 95 94 97 98 98 96 95 94 91 88 84 82 82 81 78 73 73 74 72 71 73
98 97 96 95 94 95 98 94 93 72 75 96 95 95 90 95 96 97 92 94 92 96 96 91 94 97 98 95 88 87 90 92 91 91 88 84 81 82 83 91 77 77 77 74
Wind_Speed
40 44 49 51 45 29 9 4 4 20 11 5 3 3 2 4 4 4 4 2 3 3 0 3 3 3 3 11 5 4 4 3 4 2 1 1 2 4 4 5 5 1 2 5
35 40 45 47 44 31 5 3 2 13 9 4 3 2 2 3 5 4 4 4 3 2 3 4 3 2 1 8 5 3 5 2 3 6 5 1 2 1 3 4 3 6 5 4
30 35 39 44 38 33 6 3 4 5 5 2 5 2 3 2 3 2 3 3 2 2 3 4 2 3 3 4 6 7 2 2 2 7 4 1 5 5 3 3 3 4 5 2
24 30 35 38 37 30 5 5 0 3 4 4 4 3 1 4 5 3 4 3 6 0 3 2 3 3 4 1 10 4 3 2 1 2 0 2 3 5 7 7 5 6 3 7
20 24 29 33 36 18 12 3 3 3 2 1 2 3 1 2 4 2 5 5 4 2 5 3 3 2 3 1 6 4 6 1 2 2 2 5 3 6 7 4 3 5 5 6
16 18 22 27 29 23 7 4 4 4 3 2 3 3 4 2 3 2 2 2 2 3 0 2 4 3 2 2 3 4 3 3 2 4 5 5 5 8 8 5 4 6 7 5
13 14 16 20 23 23 9 4 2 3 2 1 2 3 3 4 3 4 2 1 2 2 1 1 1 2 4 3 4 3 0 2 1 2 2 5 4 2 1 5 5 5 3 3
11 11 11 13 16 16 16 8 2 3 1 2 1 1 3 2 3 2 2 3 3 3 2 3 4 4 4 2 2 4 3 2 2 3 3 5 3 5 6 6 7 10 9 8
12 10 9 8 9 12 7 11 5 2 4 4 4 4 4 3 2 3 3 1 3 1 2 3 4 4 3 3 2 4 5 4 3 2 3 7 5 2 3 2 5 4 2 5
15 13 10 9 7 6 5 4 6 2 2 3 4 4 4 5 2 2 2 2 2 3 2 2 3 4 2 2 5 5 2 2 4 3 3 8 2 6 5 4 4 2 4 8
18 16 13 10 8 4 5 0 3 1 2 2 7 7 5 3 2 3 3 2 2 3 2 3 3 3 4 1 4 5 6 6 4 3 2 8 7 3 6 4 1 3 2 5
21 19 17 13 10 6 4 2 2 1 3 2 5 10 9 5 9 5 2 2 4 3 3 1 2 3 2 2 3 1 3 5 4 8 6 3 6 4 2 2 4 5 5 4
25 22 20 16 12 10 7 4 3 2 2 2 1 4 9 11 9 9 4 2 4 2 2 3 1 3 3 4 5 1 4 2 2 4 2 6 8 3 4 7 5 5 5 6
29 25 21 18 14 14 10 5 6 3 4 2 3 2 2 4 9 9 5 7 5 7 2 2 3 2 2 2 1 2 2 4 4 7 8 3 9 8 5 6 6 6 5 5
31 28 24 20 17 15 13 10 9 10 2 3 3 1 2 3 8 8 8 12 4 2 2 2 3 2 3 0 0 4 7 7 6 6 4 4 5 2 4 9 8 8 8 7
35 30 26 22 19 21 6 2 8 13 7 2 2 2 2 3 7 8 7 7 2 2 3 3 2 1 2 3 4 7 6 4 5 4 3 4 4 4 3 6 6 6 7 8
38 34 28 24 23 23 5 3 4 14 4 2 3 3 1 5 4 2 2 2 1 2 2 3 2 2 3 2 5 5 6 6 5 4 4 4 3 3 3 4 8 12 9 8
40 38 30 27 28 23 9 5 15 13 5 2 2 2 2 6 2 2 1 2 1 2 2 1 2 2 1 5 12 5 4 2 4 9 7 2 2 1 1 4 9 4 6 6
39 39 29 25 13 8 10 17 16 13 4 3 3 4 3 2 1 2 1 1 1 1 2 3 4 3 6 11 9 6 8 7 4 3 4 2 2 3 3 4 3 6 6 5
37 34 8 4 11 32 26 5 2 1 2 1 4 1 3 4 2 0 2 0 2 2 4 3 4 5 14 7 6 4 6 7 9 5 2 3 5 7 8 10 6 9 8 11
9 4 3 19 30 7 1 3 4 3 3 4 4 7 5 3 3 3 3 3 2 0 3 3 3 4 3 3 3 3 4 6 11 3 3 4 5 6 8 8 11 14 15 16
13 22 23 11 4 2 5 5 2 5 6 4 6 4 3 2 2 3 2 4 2 5 2 1 3 5 1 0 1 2 3 5 6 11 9 8 8 10 9 9 13 20 23 20
17 5 5 7 3 6 10 10 5 4 6 6 4 3 4 2 0 3 3 4 5 2 2 4 5 1 2 3 3 3 3 3 4 4 5 8 10 9 12 11 15 18 21 23
3 6 6 6 6 7 7 6 6 4 5 11 7 4 3 2 3 3 4 2 2 2 3 7 3 2 2 2 1 2 4 3 2 2 3 6 7 7 9 12 11 15 19 24
4 5 7 8 4 2 1 3 5 2 9 9 5 3 2 2 3 3 4 2 4 5 5 2 1 1 2 1 2 3 3 4 4 4 4 5 4 4 6 7 11 15 16 20
4 5 3 1 4 1 2 2 4 1 9 3 3 4 4 4 4 4 7 6 7 4 2 2 3 2 2 2 2 2 2 2 3 5 5 6 6 7 7 5 8 12 16 19
4 3 2 3 1 4 2 3 5 8 7 3 3 6 6 3 3 4 5 5 2 3 4 4 4 4 4 4 4 6 6 6 7 7 7 6 6 5 6 4 9 13 15 16
Wind_Direction
12 13 12 10 10 10 16 64 39 345 22 53 36 68 91 359 336 352 4 50 131 128 122 46 51 60 340 347 319 26 11 73 74 156 223 304 323 169 145 159 215 129 181 257
13 13 13 13 10 13 18 73 331 358 31 75 18 57 51 56 15 2 9 32 6 13 45 67 57 100 24 2 25 28 335 13 77 354 356 356 149 308 102 103 95 192 144 255
12 14 15 15 12 12 54 77 25 353 46 47 102 74 2 14 27 41 342 15 41 352 60 40 106 44 4 344 358 343 303 60 153 184 191 176 174 173 166 115 139 157 228 239
9 13 16 17 15 16 53 24 219 195 336 7 86 83 151 1 355 1 10 13 45 45 64 32 62 358 323 43 354 11 55 167 341 235 242 232 198 200 184 179 174 176 215 198
5 11 15 18 20 18 64 100 122 21 109 8 74 4 279 110 305 11 346 87 321 51 110 171 201 355 18 336 333 30 348 188 347 282 36 16 279 241 221 238 213 249 171 231
356 4 13 18 22 33 73 57 109 107 321 17 67 256 191 192 133 277 249 183 111 35 127 198 209 195 281 257 346 356 44 126 113 277 342 335 293 212 201 200 180 162 201 205
343 351 5 14 21 34 69 75 108 86 272 83 188 176 204 197 183 187 272 150 129 170 246 248 294 220 205 224 258 224 51 80 75 195 124 218 282 8 324 217 240 226 184 193
321 332 346 2 16 22 48 49 85 110 153 157 238 207 207 305 308 229 251 203 192 340 324 61 23 334 21 307 154 169 209 109 111 171 231 303 325 232 182 182 277 204 188 162
296 306 316 333 359 9 26 44 52 114 121 246 149 145 176 202 210 341 254 328 342 314 60 64 150 211 211 281 359 62 153 73 122 148 171 215 244 114 105 128 281 47 34 148
275 284 288 298 315 354 13 49 30 124 126 201 156 178 173 136 103 199 290 273 49 30 74 93 172 245 174 233 182 177 115 15 186 199 226 285 288 154 147 102 251 153 128 143
258 266 272 272 278 312 348 290 33 342 173 209 190 177 143 131 139 154 203 74 345 51 91 151 219 174 222 115 205 190 171 149 192 138 167 274 157 77 180 191 119 176 135 158
247 249 256 258 250 259 289 216 262 289 174 225 212 221 223 198 176 135 208 169 179 191 93 212 125 196 183 171 261 310 272 191 185 191 217 207 210 201 225 168 147 184 171 178
249 246 245 243 229 236 238 243 214 145 73 283 228 224 222 221 215 200 134 255 159 166 165 150 192 225 142 184 237 248 250 169 219 21 282 223 218 214 203 184 182 162 155 148
242 241 236 232 226 217 232 235 211 191 116 143 253 141 179 203 203 203 199 137 125 108 112 125 151 192 135 229 213 214 192 128 189 262 276 292 251 232 192 181 155 140 139 150
237 231 230 227 222 215 228 247 241 222 214 210 249 154 220 186 186 175 171 154 133 152 112 141 211 163 139 110 68 240 186 192 180 232 227 164 245 262 220 178 181 172 151 143
234 227 225 219 209 207 191 304 222 199 192 92 323 97 84 126 158 145 149 154 108 122 158 204 228 226 139 156 218 245 201 211 187 230 205 202 249 263 253 187 170 163 161 161
232 220 213 211 203 198 184 198 153 157 142 79 324 280 133 122 114 90 114 132 191 164 204 221 171 201 176 179 233 228 211 218 200 192 141 289 200 251 229 161 168 172 147 156
229 212 203 198 185 183 184 174 144 140 106 77 230 247 223 174 138 150 173 142 173 221 245 167 185 128 139 247 238 217 210 205 245 217 209 124 270 332 130 122 138 130 167 167
222 198 183 175 171 148 157 156 170 174 177 220 171 191 226 143 103 110 62 98 180 264 237 241 153 181 227 225 216 195 201 187 182 90 129 118 193 223 181 147 173 173 192 181
204 150 153 163 153 130 131 110 114 153 250 255 219 128 186 125 172 247 102 33 225 215 232 143 219 250 258 249 198 178 176 176 143 124 214 180 243 204 194 208 195 205 193 186
148 134 95 125 134 110 91 166 184 158 254 203 210 192 146 210 134 166 193 191 193 289 243 187 240 263 244 135 182 207 188 196 202 189 129 183 170 176 192 208 212 207 202 201
174 122 118 137 149 133 163 190 140 197 220 176 151 174 124 166 146 116 209 175 101 242 130 163 260 252 146 137 268 270 212 203 219 215 215 195 202 207 197 201 198 205 214 213
126 95 130 149 177 181 187 183 216 212 173 171 158 122 128 104 128 88 136 141 213 109 178 234 237 259 11 336 342 359 0 323 306 308 273 224 213 208 208 210 220 218 210 213
192 155 174 178 182 219 196 186 150 190 127 140 123 109 141 152 134 146 147 184 105 219 245 232 235 180 127 351 296 30 355 12 337 296 274 248 240 249 248 238 231 211 205 204
212 187 206 201 179 77 169 124 103 90 141 126 105 84 127 127 140 175 99 99 248 213 233 242 177 113 114 39 16 21 16 7 9 356 334 302 269 259 281 252 234 222 212 201
221 221 182 339 159 123 98 86 107 161 140 105 86 132 138 185 159 147 209 163 221 239 211 128 117 80 33 359 357 17 25 35 358 352 330 312 271 246 259 263 227 213 209 205
211 216 116 150 4 127 146 127 140 155 148 131 146 159 186 108 164 215 187 210 213 147 121 97 69 61 32 6 0 2 6 10 7 356 345 312 306 266 237 229 236 223 219 218